ONEWEB-0063, 45448

Orbit data source: Space-Track

ONEWEB-0063, 45448 is a payload satellite owned by One Web (UK) in LEO that was launched on Sat, 21 Mar 2020 UTC via a SOYUZ-2-1B launch vehicle from the Tyuratam Missile And Space Complex (TTMTR). Payload-class satellites include a variety of spacecraft equipped with specific instruments for various scientific and technological missions. These include communications satellites like Starlink; space stations such as the ISS; scientific satellites like the Hubble; Earth observation satellites from companies like Planet Labs, Umbra, and HawkEye 360; GPS; miniature CubeSats for education and research; and military/defense satellites.

Loading next visibility...
Identifier
45448, 2020-020AA
Orbit
LEO
Last TLE update
13 hours ago
Origin
Manufacturer
One Web
Mission
Operational Commercial Communications
Bus & Motor
ARROW, Unknown motor
Mass
148 kg wet, ~140 kg dry
Launch date (UTC)
2020-03-21 (5 years ago)
Launch vehicle
SOYUZ-2-1B
Launch site
Tyuratam Missile And Space Complex (TTMTR)
Object type
Payload
Rocket body
Debris
Shape & HBR
Trap Box + 2 Pan, 5 m
Radar Cross Section
2.957 m², Large (>1 m²)

Expand to show TLE details & history

TLE from 13 hours ago
0 ONEWEB-0063
1 45448U 20020AA  25181.82719852  .00000320  00000-0  86683-3 0  9997
2 45448  87.8836  91.0906 0001816  71.8236 288.3090 13.11415626256648
Epoch: 2025-06-30T19:51Z
TLE epoch observation values (Epoch: 2025-06-30T19:51:09.952Z)
Latitude
0.00004°
Longitude
-125.83229°
Altitude
1,220.144 km
Speed
7.244 km/s
True Right ascension
06h 04m 21s
True Declination
0° 00' 00"
Sunlit
Object was in daylight at epoch
Visualization orbit readout
Latitude
68.75702°
Longitude
-120.51426°
Altitude
1,228.278 km
Speed
7.247 km/s
Apparent Right ascension
07h 51m 40s
Apparent Declination
22° 08' 32"
Sunlit
Object is in daylight
Visualization observer readout
Local Sidereal Time
20:39:24
Azimuth
12.408° NNE
Elevation
-26.95°
Doppler factor
1
Orbital elements
Apogee altitude
1,216.185 km
Perigee altitude
1,213.427 km
Semi-major axis
7,592.943 km
Eccentricity
0.00018
Inclination
87.8836°
RAAN
91.0906°
Arg. of periapsis
71.8236°
True anomaly
Unknown
Mean anomaly
288.309°
Eccentric anomaly
Unknown
Mean motion
3.28041 °/min
Orbital period
109.74 mins
BSTAR
0.00086683
Loading maneuver chart data...
Loading SW <> Apogee altitude chart data...
Loading historical data...
Loading historical data...
Loading historical data...
Loading historical data...
Loading historical data...
Loading historical data...
Loading historical data...

ONEWEB-0063 Visibility forecast

Observer location: undefined°, undefined°

Span
Click to sort rows by Start time (UTC) header in descending order
Start Az.
Max El. time (UTC)
Max El. Az.
Max El.
End time (UTC)
End Az.
13 mins2025-07-01 17:55:11.401Z160.078° S2025-07-01 18:02:11.401Z72.418° E40.058°2025-07-01 18:08:11.401Z10.186° NNE
9 mins2025-07-01 19:48:11.401Z241.965° WSW2025-07-01 19:52:11.401Z283.817° WNW22.969°2025-07-01 19:57:11.401Z331.696° NNW
12 mins2025-07-02 05:26:11.401Z18.176° NNE2025-07-02 05:31:11.401Z80.063° E35.819°2025-07-02 05:38:11.401Z155.254° SSE
10 mins2025-07-02 07:16:11.401Z332.378° NNW2025-07-02 07:21:11.401Z277.63° WNW27.535°2025-07-02 07:26:11.401Z227.451° WSW
|